User: anonymous   Login
Location: Oshawa
(43.9000°N, 78.8670°W)
Time: 04:26:48
(UTC-04:00)
Language:

ITAMSAT 1 - Orbit

View from above orbital plane
View from above orbital plane
View from above satellite
View from above satellite

Ground track
Ground track

The orbit data is extracted from the following two-line orbital elements,

1 22826U 93061D   16235.93725120  .00000009  00000-0  20696-4 0  9991
2 22826  98.7598 192.7347 0009974 110.7411 249.4841 14.30290402194949
Epoch (UTC): 22 August 2016 22:29:38
Eccentricity: 0.0009974
inclination: 98.7598°
perigee height: 783 km
apogee height: 798 km
right ascension of ascending node: 192.7347°
argument of perigee: 110.7411°
revolutions per day: 14.30290402
mean anomaly at epoch: 249.4841°
orbit number at epoch: 19494

The dashed part of the orbit path shows where the satellite is in the earth's shadow,  

DLR